Time,TemperatureF,DewpointF,PressureIn,WindDirection,WindDirectionDegrees,WindSpeedMPH,WindSpeedGustMPH,Humidity,HourlyPrecipIn,Conditions,Clouds,dailyrainin,SoftwareType,DateUTC
2013-03-11 00:01:00,34.3,32.4,29.62,WNW,293,0.0,3.5,93,0.00,,,0.00,WUHU216HW,2013-03-11 05:01:00,
2013-03-11 00:06:00,34.3,32.4,29.62,WNW,293,3.1,3.1,93,0.00,,,0.00,WUHU216HW,2013-03-11 05:06:00,
2013-03-11 00:11:00,34.3,32.4,29.63,West,270,4.9,4.9,93,0.00,,,0.00,WUHU216HW,2013-03-11 05:11:00,
2013-03-11 00:16:00,34.3,32.4,29.63,WNW,293,1.7,4.9,93,0.00,,,0.00,WUHU216HW,2013-03-11 05:16:00,
2013-03-11 00:21:00,34.3,32.4,29.63,NW,315,2.2,2.2,93,0.00,,,0.00,WUHU216HW,2013-03-11 05:21:00,
2013-03-11 00:26:00,34.3,32.4,29.63,WNW,293,1.1,2.2,93,0.00,,,0.00,WUHU216HW,2013-03-11 05:26:00,
2013-03-11 00:31:00,34.3,32.4,29.62,WNW,293,0.0,2.2,93,0.00,,,0.00,WUHU216HW,2013-03-11 05:31:00,
2013-03-11 00:36:00,34.3,32.4,29.62,WNW,293,0.0,2.2,93,0.00,,,0.00,WUHU216HW,2013-03-11 05:36:00,
2013-03-11 00:41:00,34.3,32.4,29.62,NNW,338,0.0,0.8,93,0.00,,,0.00,WUHU216HW,2013-03-11 05:41:00,
2013-03-11 00:46:00,34.3,32.4,29.62,WNW,293,2.9,2.9,93,0.00,,,0.00,WUHU216HW,2013-03-11 05:46:00,
2013-03-11 00:51:00,34.3,32.4,29.62,WNW,293,0.0,2.9,93,0.00,,,0.00,WUHU216HW,2013-03-11 05:51:00,
2013-03-11 00:56:00,34.3,32.4,29.62,WNW,293,0.0,2.9,93,0.00,,,0.00,WUHU216HW,2013-03-11 05:56:00,
2013-03-11 01:01:00,34.3,32.4,29.62,NW,315,3.5,3.5,93,0.00,,,0.00,WUHU216HW,2013-03-11 06:01:00,
2013-03-11 01:06:00,34.1,32.2,29.62,WNW,293,0.0,3.5,93,0.00,,,0.00,WUHU216HW,2013-03-11 06:06:00,
2013-03-11 01:11:00,34.1,32.2,29.62,WNW,293,0.0,5.3,93,0.00,,,0.00,WUHU216HW,2013-03-11 06:11:00,
2013-03-11 01:16:00,34.1,32.2,29.62,West,270,0.0,5.3,93,0.00,,,0.00,WUHU216HW,2013-03-11 06:16:00,
2013-03-11 01:21:00,34.1,32.2,29.62,NW,315,0.0,4.9,93,0.00,,,0.00,WUHU216HW,2013-03-11 06:21:00,
2013-03-11 01:26:00,34.1,32.2,29.62,WNW,293,0.0,4.9,93,0.00,,,0.00,WUHU216HW,2013-03-11 06:26:00,
2013-03-11 01:31:00,34.1,32.2,29.62,WNW,293,3.1,6.0,93,0.00,,,0.00,WUHU216HW,2013-03-11 06:31:00,
2013-03-11 01:36:00,34.1,32.2,29.62,NW,315,0.0,6.0,93,0.00,,,0.00,WUHU216HW,2013-03-11 06:36:00,
2013-03-11 01:41:00,34.1,32.2,29.63,West,270,1.1,3.8,93,0.00,,,0.00,WUHU216HW,2013-03-11 06:41:00,
2013-03-11 01:46:00,34.1,32.2,29.63,WNW,293,1.5,3.1,93,0.00,,,0.00,WUHU216HW,2013-03-11 06:46:00,
2013-03-11 01:51:00,33.9,32.0,29.63,NW,315,2.0,2.0,93,0.00,,,0.00,WUHU216HW,2013-03-11 06:51:00,
2013-03-11 01:56:00,33.9,32.0,29.63,WNW,293,2.2,2.2,93,0.00,,,0.00,WUHU216HW,2013-03-11 06:56:00,
2013-03-11 02:01:00,33.9,32.0,29.63,WNW,293,0.0,2.2,93,0.00,,,0.00,WUHU216HW,2013-03-11 07:01:00,
2013-03-11 02:07:00,33.9,32.0,29.63,SW,225,3.3,3.3,93,0.00,,,0.00,WUHU216HW,2013-03-11 07:07:00,
2013-03-11 02:12:00,33.9,32.0,29.63,WNW,293,2.4,4.4,93,0.00,,,0.00,WUHU216HW,2013-03-11 07:12:00,
2013-03-11 02:17:00,33.8,31.9,29.63,WNW,293,1.1,4.4,93,0.00,,,0.00,WUHU216HW,2013-03-11 07:17:00,
2013-03-11 02:22:00,33.8,31.9,29.63,WNW,293,2.9,2.9,93,0.00,,,0.00,WUHU216HW,2013-03-11 07:22:00,
2013-03-11 02:27:00,33.6,31.7,29.62,West,270,2.4,4.6,93,0.00,,,0.00,WUHU216HW,2013-03-11 07:27:00,
2013-03-11 02:32:00,33.6,31.7,29.62,NNW,338,0.6,4.6,93,0.00,,,0.00,WUHU216HW,2013-03-11 07:32:00,
2013-03-11 02:37:00,33.6,31.7,29.62,NW,315,3.5,5.1,93,0.00,,,0.00,WUHU216HW,2013-03-11 07:37:00,
2013-03-11 02:42:00,33.6,31.7,29.62,NNW,338,2.9,5.1,93,0.00,,,0.00,WUHU216HW,2013-03-11 07:42:00,
2013-03-11 02:47:00,33.6,31.7,29.62,WNW,293,3.5,3.5,93,0.00,,,0.00,WUHU216HW,2013-03-11 07:47:00,
2013-03-11 02:52:00,33.4,31.5,29.61,NNE,23,0.0,3.5,93,0.00,,,0.00,WUHU216HW,2013-03-11 07:52:00,
2013-03-11 02:57:00,33.4,31.5,29.61,West,270,0.0,2.2,93,0.00,,,0.00,WUHU216HW,2013-03-11 07:57:00,
2013-03-11 03:02:00,33.4,31.5,29.61,NW,315,4.6,4.6,93,0.00,,,0.00,WUHU216HW,2013-03-11 08:02:00,
2013-03-11 03:07:00,33.4,31.5,29.61,NNW,338,3.1,4.6,93,0.00,,,0.00,WUHU216HW,2013-03-11 08:07:00,
2013-03-11 03:12:00,33.2,31.4,29.61,NNW,338,0.0,3.1,93,0.00,,,0.00,WUHU216HW,2013-03-11 08:12:00,
2013-03-11 03:17:00,33.2,31.4,29.61,WNW,293,2.4,3.1,93,0.00,,,0.00,WUHU216HW,2013-03-11 08:17:00,
2013-03-11 03:22:00,33.2,31.4,29.61,WNW,293,0.0,2.9,93,0.00,,,0.00,WUHU216HW,2013-03-11 08:22:00,
2013-03-11 03:27:00,33.2,31.4,29.61,WSW,248,0.0,2.9,93,0.00,,,0.00,WUHU216HW,2013-03-11 08:27:00,
2013-03-11 03:32:00,33.0,31.2,29.60,NNW,338,2.4,7.1,93,0.00,,,0.00,WUHU216HW,2013-03-11 08:32:00,
2013-03-11 03:37:00,33.0,31.2,29.61,NW,315,3.1,7.1,93,0.00,,,0.00,WUHU216HW,2013-03-11 08:37:00,
2013-03-11 03:42:00,33.0,31.2,29.61,WNW,293,2.0,6.0,93,0.00,,,0.00,WUHU216HW,2013-03-11 08:42:00,
2013-03-11 03:47:00,33.0,31.2,29.61,WNW,293,0.6,6.0,93,0.00,,,0.00,WUHU216HW,2013-03-11 08:47:00,
2013-03-11 03:52:00,33.0,31.2,29.61,WNW,293,3.1,3.1,93,0.00,,,0.00,WUHU216HW,2013-03-11 08:52:00,
2013-03-11 03:57:00,32.9,31.0,29.61,WNW,293,6.7,6.7,93,0.00,,,0.00,WUHU216HW,2013-03-11 08:57:00,
2013-03-11 04:02:00,32.9,31.3,29.61,NW,315,0.0,6.7,94,0.00,,,0.00,WUHU216HW,2013-03-11 09:02:00,
2013-03-11 04:07:00,32.9,31.3,29.60,WNW,293,4.0,5.8,94,0.00,,,0.00,WUHU216HW,2013-03-11 09:07:00,
2013-03-11 04:12:00,32.7,30.9,29.61,NW,315,12.3,12.3,93,0.00,,,0.00,WUHU216HW,2013-03-11 09:12:00,
2013-03-11 04:17:00,32.7,30.9,29.60,North,0,3.5,12.3,93,0.00,,,0.00,WUHU216HW,2013-03-11 09:17:00,
2013-03-11 04:23:00,32.7,30.9,29.60,WNW,293,4.4,6.0,93,0.00,,,0.00,WUHU216HW,2013-03-11 09:23:00,
2013-03-11 04:28:00,32.7,30.9,29.61,NW,315,2.4,4.4,93,0.00,,,0.00,WUHU216HW,2013-03-11 09:28:00,
2013-03-11 04:33:00,32.5,30.7,29.61,NW,315,2.6,4.4,93,0.00,,,0.00,WUHU216HW,2013-03-11 09:33:00,
2013-03-11 04:38:00,32.5,30.7,29.61,NW,315,4.4,5.1,93,0.00,,,0.00,WUHU216HW,2013-03-11 09:38:00,
2013-03-11 04:43:00,32.5,30.7,29.61,NNW,338,2.0,5.1,93,0.00,,,0.00,WUHU216HW,2013-03-11 09:43:00,
2013-03-11 04:48:00,32.5,30.7,29.61,WNW,293,2.0,4.4,93,0.00,,,0.00,WUHU216HW,2013-03-11 09:48:00,
2013-03-11 04:53:00,32.5,30.7,29.60,North,0,5.8,5.8,93,0.00,,,0.00,WUHU216HW,2013-03-11 09:53:00,
2013-03-11 04:58:00,32.5,30.9,29.60,WNW,293,2.9,5.8,94,0.00,,,0.00,WUHU216HW,2013-03-11 09:58:00,
2013-03-11 05:03:00,32.3,30.5,29.61,WNW,293,8.9,8.9,93,0.00,,,0.00,WUHU216HW,2013-03-11 10:03:00,
2013-03-11 05:08:00,32.3,30.5,29.61,WNW,293,1.1,8.9,93,0.00,,,0.00,WUHU216HW,2013-03-11 10:08:00,
2013-03-11 05:13:00,32.1,30.6,29.61,West,270,0.0,8.9,94,0.00,,,0.00,WUHU216HW,2013-03-11 10:13:00,
2013-03-11 05:18:00,32.1,30.6,29.61,NNW,338,3.8,7.6,94,0.00,,,0.00,WUHU216HW,2013-03-11 10:18:00,
2013-03-11 05:23:00,32.1,30.6,29.61,West,270,2.0,7.6,94,0.00,,,0.00,WUHU216HW,2013-03-11 10:23:00,
2013-03-11 05:28:00,32.1,30.6,29.62,NNW,338,3.1,3.8,94,0.00,,,0.00,WUHU216HW,2013-03-11 10:28:00,
2013-03-11 05:33:00,32.1,30.6,29.62,NNW,338,2.6,3.1,94,0.00,,,0.00,WUHU216HW,2013-03-11 10:33:00,
2013-03-11 05:38:00,32.1,30.6,29.62,NNW,338,0.0,2.9,94,0.00,,,0.00,WUHU216HW,2013-03-11 10:38:00,
2013-03-11 05:43:00,32.1,30.6,29.62,NNW,338,3.8,3.8,94,0.00,,,0.00,WUHU216HW,2013-03-11 10:43:00,
2013-03-11 05:48:00,32.1,30.6,29.62,WNW,293,0.0,3.8,94,0.00,,,0.00,WUHU216HW,2013-03-11 10:48:00,
2013-03-11 05:53:00,32.1,30.6,29.62,WNW,293,3.5,3.5,94,0.00,,,0.00,WUHU216HW,2013-03-11 10:53:00,
2013-03-11 05:58:00,32.1,30.6,29.62,NNW,338,0.8,7.1,94,0.00,,,0.00,WUHU216HW,2013-03-11 10:58:00,
2013-03-11 06:03:00,32.1,30.6,29.63,NW,315,0.0,7.1,94,0.00,,,0.00,WUHU216HW,2013-03-11 11:03:00,
2013-03-11 06:08:00,32.1,30.6,29.62,WNW,293,0.0,4.9,94,0.00,,,0.00,WUHU216HW,2013-03-11 11:08:00,
2013-03-11 06:13:00,32.1,30.6,29.63,North,0,0.0,1.1,94,0.00,,,0.00,WUHU216HW,2013-03-11 11:13:00,
2013-03-11 06:18:00,32.1,30.6,29.63,NW,315,4.4,4.4,94,0.00,,,0.00,WUHU216HW,2013-03-11 11:18:00,
2013-03-11 06:23:00,32.1,30.4,29.63,NW,315,0.0,4.4,94,0.00,,,0.00,WUHU216HW,2013-03-11 11:23:00,
2013-03-11 06:28:00,32.1,30.6,29.63,WSW,248,0.0,3.1,94,0.00,,,0.00,WUHU216HW,2013-03-11 11:28:00,
2013-03-11 06:33:00,32.1,30.6,29.63,NNW,338,0.0,0.0,94,0.00,,,0.00,WUHU216HW,2013-03-11 11:33:00,
2013-03-11 06:38:00,32.0,30.4,29.64,WNW,293,0.0,0.0,94,0.00,,,0.00,WUHU216HW,2013-03-11 11:38:00,
2013-03-11 06:43:00,32.0,30.4,29.64,NW,315,0.0,0.0,94,0.00,,,0.00,WUHU216HW,2013-03-11 11:43:00,
2013-03-11 06:48:00,32.0,30.4,29.64,NNW,338,0.0,0.0,94,0.00,,,0.00,WUHU216HW,2013-03-11 11:48:00,
2013-03-11 06:53:00,31.8,30.3,29.64,NW,315,0.0,0.0,94,0.00,,,0.00,WUHU216HW,2013-03-11 11:53:00,
2013-03-11 06:58:00,31.8,30.3,29.65,NNW,338,0.0,0.0,94,0.00,,,0.00,WUHU216HW,2013-03-11 11:58:00,
2013-03-11 07:03:00,31.8,30.3,29.65,NW,315,0.0,0.0,94,0.00,,,0.00,WUHU216HW,2013-03-11 12:03:00,
2013-03-11 07:08:00,31.8,30.3,29.65,NW,315,0.0,0.0,94,0.00,,,0.00,WUHU216HW,2013-03-11 12:08:00,
2013-03-11 07:13:00,31.8,30.3,29.65,WNW,293,0.0,0.0,94,0.00,,,0.00,WUHU216HW,2013-03-11 12:13:00,
2013-03-11 07:18:00,31.8,30.3,29.65,WNW,293,0.0,0.0,94,0.00,,,0.00,WUHU216HW,2013-03-11 12:18:00,
2013-03-11 07:23:00,31.8,30.3,29.65,NW,315,0.0,0.0,94,0.00,,,0.00,WUHU216HW,2013-03-11 12:23:00,
2013-03-11 07:28:00,31.8,30.3,29.65,WNW,293,0.0,0.0,94,0.00,,,0.00,WUHU216HW,2013-03-11 12:28:00,
2013-03-11 07:33:00,31.8,30.3,29.65,West,270,0.0,0.0,94,0.00,,,0.00,WUHU216HW,2013-03-11 12:33:00,
2013-03-11 07:38:00,31.8,30.3,29.66,WNW,293,0.0,0.0,94,0.00,,,0.00,WUHU216HW,2013-03-11 12:38:00,
2013-03-11 07:43:00,31.6,30.1,29.66,NW,315,0.0,0.0,94,0.00,,,0.00,WUHU216HW,2013-03-11 12:43:00,
2013-03-11 07:48:00,31.6,30.1,29.66,NW,315,0.0,0.0,94,0.00,,,0.00,WUHU216HW,2013-03-11 12:48:00,
2013-03-11 07:53:00,31.6,30.1,29.66,WNW,293,0.0,0.0,94,0.00,,,0.00,WUHU216HW,2013-03-11 12:53:00,
2013-03-11 07:58:00,31.6,30.1,29.66,NNW,338,0.0,0.0,94,0.00,,,0.00,WUHU216HW,2013-03-11 12:58:00,
2013-03-11 08:03:00,31.6,30.1,29.65,West,270,0.0,0.0,94,0.00,,,0.00,WUHU216HW,2013-03-11 13:03:00,
2013-03-11 08:08:00,31.6,30.1,29.66,WNW,293,0.0,0.0,94,0.00,,,0.00,WUHU216HW,2013-03-11 13:08:00,
2013-03-11 08:13:00,31.6,30.1,29.66,North,0,0.0,0.0,94,0.00,,,0.00,WUHU216HW,2013-03-11 13:13:00,
2013-03-11 08:19:00,31.6,30.1,29.66,North,0,0.0,0.0,94,0.00,,,0.00,WUHU216HW,2013-03-11 13:19:00,
2013-03-11 08:24:00,31.6,30.1,29.66,West,270,0.0,0.0,94,0.00,,,0.00,WUHU216HW,2013-03-11 13:24:00,
2013-03-11 08:29:00,31.6,30.1,29.66,NNW,338,0.0,0.0,94,0.00,,,0.00,WUHU216HW,2013-03-11 13:29:00,
2013-03-11 08:34:00,31.6,30.1,29.67,WNW,293,0.0,0.0,94,0.00,,,0.00,WUHU216HW,2013-03-11 13:34:00,
2013-03-11 08:39:00,31.6,30.1,29.66,WSW,248,0.0,0.0,94,0.00,,,0.00,WUHU216HW,2013-03-11 13:39:00,
2013-03-11 08:44:00,31.6,30.1,29.66,NW,315,0.0,0.0,94,0.00,,,0.00,WUHU216HW,2013-03-11 13:44:00,
2013-03-11 08:49:00,31.2,29.7,29.67,WNW,293,0.0,0.0,94,0.00,,,0.00,WUHU216HW,2013-03-11 13:49:00,
2013-03-11 08:54:00,31.2,29.7,29.67,North,0,0.0,0.0,94,0.00,,,0.00,WUHU216HW,2013-03-11 13:54:00,
2013-03-11 08:59:00,31.2,29.7,29.67,WNW,293,0.0,0.0,94,0.00,,,0.00,WUHU216HW,2013-03-11 13:59:00,
2013-03-11 09:04:00,31.2,29.7,29.67,West,270,0.0,0.0,94,0.00,,,0.00,WUHU216HW,2013-03-11 14:04:00,
2013-03-11 09:09:00,31.1,29.5,29.67,WNW,293,0.0,0.0,94,0.00,,,0.00,WUHU216HW,2013-03-11 14:09:00,
2013-03-11 09:14:00,31.1,29.5,29.68,NNW,338,0.0,0.0,94,0.00,,,0.00,WUHU216HW,2013-03-11 14:14:00,
2013-03-11 09:19:00,30.9,29.4,29.68,NW,315,0.0,0.0,94,0.00,,,0.00,WUHU216HW,2013-03-11 14:19:00,
2013-03-11 09:24:00,30.9,29.4,29.68,West,270,0.0,0.0,94,0.00,,,0.00,WUHU216HW,2013-03-11 14:24:00,
2013-03-11 09:29:00,30.9,29.4,29.68,West,270,0.0,0.0,94,0.00,,,0.00,WUHU216HW,2013-03-11 14:29:00,
2013-03-11 09:34:00,30.9,29.4,29.68,NW,315,0.0,0.0,94,0.00,,,0.00,WUHU216HW,2013-03-11 14:34:00,
2013-03-11 09:39:00,30.7,28.9,29.68,North,0,0.0,0.0,93,0.00,,,0.00,WUHU216HW,2013-03-11 14:39:00,
2013-03-11 09:44:00,30.7,28.9,29.68,NW,315,0.0,0.0,93,0.00,,,0.00,WUHU216HW,2013-03-11 14:44:00,
2013-03-11 09:49:00,30.5,28.7,29.68,WNW,293,0.0,0.0,93,0.00,,,0.00,WUHU216HW,2013-03-11 14:49:00,
2013-03-11 09:54:00,30.7,28.9,29.69,West,270,0.0,0.0,93,0.00,,,0.00,WUHU216HW,2013-03-11 14:54:00,
2013-03-11 09:59:00,30.7,28.9,29.68,West,270,0.0,0.0,93,0.00,,,0.00,WUHU216HW,2013-03-11 14:59:00,
2013-03-11 10:04:00,30.5,28.7,29.68,WNW,293,0.0,0.0,93,0.00,,,0.00,WUHU216HW,2013-03-11 15:04:00,
2013-03-11 10:09:00,30.7,28.9,29.69,NW,315,0.0,0.0,93,0.00,,,0.00,WUHU216HW,2013-03-11 15:09:00,
2013-03-11 10:14:00,30.5,28.5,29.69,NW,315,0.0,0.0,92,0.00,,,0.00,WUHU216HW,2013-03-11 15:14:00,
2013-03-11 10:19:00,30.3,28.3,29.69,WSW,248,0.0,0.0,92,0.00,,,0.00,WUHU216HW,2013-03-11 15:19:00,
2013-03-11 10:24:00,30.5,28.3,29.69,West,270,0.0,0.0,92,0.00,,,0.00,WUHU216HW,2013-03-11 15:24:00,
2013-03-11 10:29:00,30.5,28.5,29.69,NNW,338,0.0,0.0,92,0.00,,,0.00,WUHU216HW,2013-03-11 15:29:00,
2013-03-11 10:34:00,30.7,28.4,29.69,WNW,293,0.0,0.0,91,0.00,,,0.00,WUHU216HW,2013-03-11 15:34:00,
2013-03-11 10:39:00,30.7,28.4,29.69,WNW,293,0.0,0.0,91,0.00,,,0.00,WUHU216HW,2013-03-11 15:39:00,
2013-03-11 10:44:00,30.5,28.0,29.70,WNW,293,0.0,0.0,90,0.00,,,0.00,WUHU216HW,2013-03-11 15:44:00,
2013-03-11 10:49:00,30.7,28.2,29.69,SW,225,0.0,0.0,90,0.00,,,0.00,WUHU216HW,2013-03-11 15:49:00,
2013-03-11 10:54:00,30.7,28.2,29.70,West,270,0.0,0.0,90,0.00,,,0.00,WUHU216HW,2013-03-11 15:54:00,
2013-03-11 10:59:00,30.9,28.4,29.70,West,270,0.0,0.0,90,0.00,,,0.00,WUHU216HW,2013-03-11 15:59:00,
2013-03-11 11:04:00,30.9,28.1,29.70,NNW,338,0.0,0.0,89,0.00,,,0.00,WUHU216HW,2013-03-11 16:04:00,
2013-03-11 11:09:00,30.7,27.6,29.70,NW,315,0.0,0.0,88,0.00,,,0.00,WUHU216HW,2013-03-11 16:09:00,
2013-03-11 11:14:00,30.7,27.9,29.70,NW,315,0.0,0.0,89,0.00,,,0.00,WUHU216HW,2013-03-11 16:14:00,
2013-03-11 11:19:00,30.7,27.6,29.70,NNW,338,0.0,0.0,88,0.00,,,0.00,WUHU216HW,2013-03-11 16:19:00,
2013-03-11 11:24:00,30.7,27.6,29.70,NNW,338,0.0,0.0,88,0.00,,,0.00,WUHU216HW,2013-03-11 16:24:00,
2013-03-11 11:29:00,30.9,27.8,29.70,NNW,338,0.0,0.0,88,0.00,,,0.00,WUHU216HW,2013-03-11 16:29:00,
2013-03-11 11:34:00,31.1,28.0,29.70,WSW,248,0.0,0.0,88,0.00,,,0.00,WUHU216HW,2013-03-11 16:34:00,
2013-03-11 11:39:00,31.6,28.2,29.70,WNW,293,0.0,0.0,87,0.00,,,0.00,WUHU216HW,2013-03-11 16:39:00,
2013-03-11 11:44:00,31.6,28.2,29.70,NE,45,0.0,0.0,87,0.00,,,0.00,WUHU216HW,2013-03-11 16:44:00,
2013-03-11 11:49:00,31.6,27.9,29.70,WNW,293,0.0,0.0,86,0.00,,,0.00,WUHU216HW,2013-03-11 16:49:00,
2013-03-11 11:54:00,31.6,27.9,29.70,WNW,293,0.0,0.0,86,0.00,,,0.00,WUHU216HW,2013-03-11 16:54:00,
2013-03-11 11:59:00,31.6,27.6,29.70,NW,315,0.0,0.0,85,0.00,,,0.00,WUHU216HW,2013-03-11 16:59:00,
2013-03-11 12:04:00,31.6,27.6,29.71,NNW,338,0.0,0.0,85,0.00,,,0.00,WUHU216HW,2013-03-11 17:04:00,
2013-03-11 12:09:00,31.8,27.8,29.71,WSW,248,0.0,0.0,85,0.00,,,0.00,WUHU216HW,2013-03-11 17:09:00,
2013-03-11 12:14:00,31.8,27.8,29.71,NNW,338,0.0,0.0,85,0.00,,,0.00,WUHU216HW,2013-03-11 17:14:00,
2013-03-11 12:19:00,31.8,27.5,29.71,NW,315,0.0,0.0,84,0.00,,,0.00,WUHU216HW,2013-03-11 17:19:00,
2013-03-11 12:24:00,31.8,27.5,29.71,NNW,338,0.0,0.0,84,0.00,,,0.00,WUHU216HW,2013-03-11 17:24:00,
2013-03-11 12:29:00,31.8,27.5,29.72,NNW,338,0.0,0.0,84,0.00,,,0.00,WUHU216HW,2013-03-11 17:29:00,
2013-03-11 12:34:00,31.8,27.5,29.72,West,270,0.0,0.0,84,0.00,,,0.00,WUHU216HW,2013-03-11 17:34:00,
2013-03-11 12:39:00,31.8,27.5,29.72,North,0,0.0,0.0,84,0.00,,,0.00,WUHU216HW,2013-03-11 17:39:00,
2013-03-11 12:44:00,31.6,27.3,29.72,WNW,293,0.0,0.0,84,0.00,,,0.00,WUHU216HW,2013-03-11 17:44:00,
2013-03-11 12:49:00,31.2,27.0,29.72,NNW,338,0.0,0.0,84,0.00,,,0.00,WUHU216HW,2013-03-11 17:49:00,
2013-03-11 12:54:00,31.6,27.6,29.72,NW,315,0.0,0.0,85,0.00,,,0.00,WUHU216HW,2013-03-11 17:54:00,
2013-03-11 12:59:00,31.6,27.3,29.72,NW,315,0.0,0.0,84,0.00,,,0.00,WUHU216HW,2013-03-11 17:59:00,
2013-03-11 13:04:00,31.6,27.3,29.72,WNW,293,0.0,0.0,84,0.00,,,0.00,WUHU216HW,2013-03-11 18:04:00,
2013-03-11 13:09:00,31.6,27.3,29.72,WNW,293,0.0,0.0,84,0.00,,,0.00,WUHU216HW,2013-03-11 18:09:00,
2013-03-11 13:14:00,31.6,27.3,29.73,WNW,293,0.0,0.0,84,0.00,,,0.00,WUHU216HW,2013-03-11 18:14:00,
2013-03-11 13:19:00,31.6,27.3,29.72,West,270,0.0,0.0,84,0.00,,,0.00,WUHU216HW,2013-03-11 18:19:00,
2013-03-11 13:24:00,31.6,27.3,29.72,WSW,248,0.0,0.0,84,0.00,,,0.00,WUHU216HW,2013-03-11 18:24:00,
2013-03-11 13:29:00,31.2,27.0,29.72,West,270,0.0,0.0,84,0.00,,,0.00,WUHU216HW,2013-03-11 18:29:00,
2013-03-11 13:34:00,31.2,26.7,29.72,NW,315,0.0,0.0,83,0.00,,,0.00,WUHU216HW,2013-03-11 18:34:00,
2013-03-11 13:39:00,31.2,26.4,29.72,NW,315,0.0,0.0,82,0.00,,,0.00,WUHU216HW,2013-03-11 18:39:00,
2013-03-11 13:44:00,31.1,26.5,29.72,WNW,293,0.0,0.0,83,0.00,,,0.00,WUHU216HW,2013-03-11 18:44:00,
2013-03-11 13:49:00,30.9,26.3,29.72,NW,315,0.0,0.0,83,0.00,,,0.00,WUHU216HW,2013-03-11 18:49:00,
2013-03-11 13:54:00,30.9,26.6,29.72,NNW,338,0.0,0.0,84,0.00,,,0.00,WUHU216HW,2013-03-11 18:54:00,
2013-03-11 13:59:00,30.7,26.4,29.72,NNW,338,0.0,0.0,84,0.00,,,0.00,WUHU216HW,2013-03-11 18:59:00,
2013-03-11 14:06:00,30.9,26.6,29.72,WNW,293,0.0,0.0,84,0.00,,,0.00,WUHU216HW,2013-03-11 19:06:00,
2013-03-11 14:11:00,30.9,26.6,29.72,WNW,293,0.0,0.0,84,0.00,,,0.00,WUHU216HW,2013-03-11 19:11:00,
2013-03-11 14:16:00,30.9,26.6,29.72,WNW,293,0.0,0.0,84,0.00,,,0.00,WUHU216HW,2013-03-11 19:16:00,
2013-03-11 14:21:00,30.9,26.6,29.72,West,270,0.0,0.0,84,0.00,,,0.00,WUHU216HW,2013-03-11 19:21:00,
2013-03-11 14:26:00,31.1,26.8,29.72,WNW,293,0.0,0.0,84,0.00,,,0.00,WUHU216HW,2013-03-11 19:26:00,
2013-03-11 14:31:00,31.1,26.5,29.72,West,270,0.0,0.0,83,0.00,,,0.00,WUHU216HW,2013-03-11 19:31:00,
2013-03-11 14:37:00,30.9,26.3,29.72,WNW,293,0.0,0.0,83,0.00,,,0.00,WUHU216HW,2013-03-11 19:37:00,
2013-03-11 14:42:00,30.7,26.2,29.72,WNW,293,0.0,0.0,83,0.00,,,0.00,WUHU216HW,2013-03-11 19:42:00,
2013-03-11 14:47:00,30.9,26.6,29.72,West,270,0.0,0.0,84,0.00,,,0.00,WUHU216HW,2013-03-11 19:47:00,
2013-03-11 14:52:00,30.9,26.3,29.73,NW,315,0.0,0.0,83,0.00,,,0.00,WUHU216HW,2013-03-11 19:52:00,
2013-03-11 14:57:00,30.7,26.2,29.73,West,270,0.0,0.0,83,0.00,,,0.00,WUHU216HW,2013-03-11 19:57:00,
2013-03-11 15:02:00,30.7,26.2,29.73,WNW,293,0.0,0.0,83,0.00,,,0.00,WUHU216HW,2013-03-11 20:02:00,
2013-03-11 15:07:00,30.7,26.2,29.73,WNW,293,0.0,0.0,83,0.00,,,0.00,WUHU216HW,2013-03-11 20:07:00,
2013-03-11 15:12:00,30.7,26.2,29.73,WNW,293,0.0,0.0,83,0.00,,,0.00,WUHU216HW,2013-03-11 20:12:00,
2013-03-11 15:17:00,30.9,26.3,29.73,NW,315,0.0,0.0,83,0.00,,,0.00,WUHU216HW,2013-03-11 20:17:00,
2013-03-11 15:22:00,30.9,26.3,29.73,NW,315,0.0,0.0,83,0.00,,,0.00,WUHU216HW,2013-03-11 20:22:00,
2013-03-11 15:27:00,30.9,26.0,29.73,WNW,293,0.0,0.0,82,0.00,,,0.00,WUHU216HW,2013-03-11 20:27:00,
2013-03-11 15:32:00,30.7,25.9,29.73,West,270,0.0,0.0,82,0.00,,,0.00,WUHU216HW,2013-03-11 20:32:00,
2013-03-11 15:37:00,30.9,26.0,29.73,NNW,338,0.0,0.0,82,0.00,,,0.00,WUHU216HW,2013-03-11 20:37:00,
2013-03-11 15:42:00,30.9,26.3,29.73,West,270,0.0,0.0,82,0.00,,,0.00,WUHU216HW,2013-03-11 20:42:00,
2013-03-11 15:47:00,30.9,26.0,29.73,West,270,0.0,0.0,82,0.00,,,0.00,WUHU216HW,2013-03-11 20:47:00,
2013-03-11 15:52:00,30.7,25.9,29.74,WNW,293,0.0,0.0,82,0.00,,,0.00,WUHU216HW,2013-03-11 20:52:00,
2013-03-11 15:58:00,30.9,26.0,29.73,East,90,0.0,0.0,82,0.00,,,0.00,WUHU216HW,2013-03-11 20:58:00,
2013-03-11 16:03:00,30.9,25.8,29.74,West,270,0.0,0.0,81,0.00,,,0.00,WUHU216HW,2013-03-11 21:03:00,
2013-03-11 16:08:00,31.1,25.9,29.74,NNW,338,0.0,0.0,81,0.00,,,0.00,WUHU216HW,2013-03-11 21:08:00,
2013-03-11 16:13:00,30.9,25.8,29.74,WSW,248,0.0,0.0,81,0.00,,,0.00,WUHU216HW,2013-03-11 21:13:00,
2013-03-11 16:18:00,30.7,25.6,29.74,NW,315,0.0,0.0,81,0.00,,,0.00,WUHU216HW,2013-03-11 21:18:00,
2013-03-11 16:23:00,30.7,25.6,29.75,WNW,293,0.0,0.0,81,0.00,,,0.00,WUHU216HW,2013-03-11 21:23:00,
2013-03-11 16:28:00,30.9,25.8,29.75,WNW,293,0.0,0.0,81,0.00,,,0.00,WUHU216HW,2013-03-11 21:28:00,
2013-03-11 16:33:00,30.9,25.8,29.75,WNW,293,0.0,0.0,81,0.00,,,0.00,WUHU216HW,2013-03-11 21:33:00,
2013-03-11 16:38:00,31.1,25.9,29.75,NW,315,0.0,0.0,81,0.00,,,0.00,WUHU216HW,2013-03-11 21:38:00,
2013-03-11 16:43:00,31.1,25.7,29.76,NW,315,0.0,0.0,80,0.00,,,0.00,WUHU216HW,2013-03-11 21:43:00,
2013-03-11 16:48:00,30.7,25.3,29.76,WNW,293,0.0,0.0,80,0.00,,,0.00,WUHU216HW,2013-03-11 21:48:00,
2013-03-11 16:53:00,30.7,25.3,29.76,WNW,293,0.0,0.0,80,0.00,,,0.00,WUHU216HW,2013-03-11 21:53:00,
2013-03-11 16:58:00,30.5,25.4,29.76,SW,225,0.0,0.0,81,0.00,,,0.00,WUHU216HW,2013-03-11 21:58:00,
2013-03-11 17:03:00,30.5,25.4,29.76,NW,315,0.0,0.0,81,0.00,,,0.00,WUHU216HW,2013-03-11 22:03:00,
2013-03-11 17:08:00,30.3,25.2,29.77,WNW,293,0.0,0.0,81,0.00,,,0.00,WUHU216HW,2013-03-11 22:08:00,
2013-03-11 17:13:00,30.2,25.0,29.78,WNW,293,0.0,0.0,81,0.00,,,0.00,WUHU216HW,2013-03-11 22:13:00,
2013-03-11 17:18:00,30.0,24.9,29.78,West,270,0.0,0.0,81,0.00,,,0.00,WUHU216HW,2013-03-11 22:18:00,
2013-03-11 17:23:00,30.0,24.9,29.77,WNW,293,0.0,0.0,81,0.00,,,0.00,WUHU216HW,2013-03-11 22:23:00,
2013-03-11 17:28:00,29.8,24.7,29.77,WNW,293,0.0,0.0,81,0.00,,,0.00,WUHU216HW,2013-03-11 22:28:00,
2013-03-11 17:33:00,29.8,24.7,29.77,West,270,0.0,0.0,81,0.00,,,0.00,WUHU216HW,2013-03-11 22:33:00,
2013-03-11 17:38:00,29.6,24.5,29.78,West,270,0.0,0.0,81,0.00,,,0.00,WUHU216HW,2013-03-11 22:38:00,
2013-03-11 17:43:00,29.6,24.5,29.78,SSW,203,0.0,0.0,81,0.00,,,0.00,WUHU216HW,2013-03-11 22:43:00,
2013-03-11 17:48:00,29.4,24.6,29.78,NW,315,0.0,0.0,82,0.00,,,0.00,WUHU216HW,2013-03-11 22:48:00,
2013-03-11 17:53:00,29.4,24.6,29.79,North,0,0.0,0.0,82,0.00,,,0.00,WUHU216HW,2013-03-11 22:53:00,
2013-03-11 17:58:00,29.4,24.6,29.78,NW,315,0.0,0.0,82,0.00,,,0.00,WUHU216HW,2013-03-11 22:58:00,
2013-03-11 18:03:00,29.4,24.6,29.78,NW,315,0.0,0.0,82,0.00,,,0.00,WUHU216HW,2013-03-11 23:03:00,
2013-03-11 18:08:00,29.4,24.4,29.79,WNW,293,0.0,0.0,82,0.00,,,0.00,WUHU216HW,2013-03-11 23:08:00,
2013-03-11 18:13:00,29.3,24.4,29.80,WSW,248,0.0,0.0,82,0.00,,,0.00,WUHU216HW,2013-03-11 23:13:00,
2013-03-11 18:18:00,29.3,24.1,29.80,WNW,293,0.0,0.0,81,0.00,,,0.00,WUHU216HW,2013-03-11 23:18:00,
2013-03-11 18:23:00,29.3,23.9,29.80,NW,315,0.0,0.0,80,0.00,,,0.00,WUHU216HW,2013-03-11 23:23:00,
2013-03-11 18:28:00,29.3,23.9,29.81,WNW,293,0.0,0.0,80,0.00,,,0.00,WUHU216HW,2013-03-11 23:28:00,
2013-03-11 18:33:00,29.3,23.9,29.81,WNW,293,0.0,0.0,80,0.00,,,0.00,WUHU216HW,2013-03-11 23:33:00,
2013-03-11 18:38:00,29.3,23.9,29.81,WNW,293,0.0,0.0,80,0.00,,,0.00,WUHU216HW,2013-03-11 23:38:00,
2013-03-11 18:43:00,29.3,23.9,29.81,West,270,0.0,0.0,80,0.00,,,0.00,WUHU216HW,2013-03-11 23:43:00,
2013-03-11 18:48:00,29.3,23.9,29.81,NNW,338,0.0,0.0,80,0.00,,,0.00,WUHU216HW,2013-03-11 23:48:00,
2013-03-11 18:53:00,29.1,23.7,29.81,WNW,293,0.0,0.0,80,0.00,,,0.00,WUHU216HW,2013-03-11 23:53:00,
2013-03-11 18:58:00,29.1,23.3,29.81,NNW,338,0.0,0.0,79,0.00,,,0.00,WUHU216HW,2013-03-11 23:58:00,
2013-03-11 19:03:00,29.1,23.3,29.81,North,0,0.0,0.0,79,0.00,,,0.00,WUHU216HW,2013-03-12 00:03:00,
2013-03-11 19:08:00,29.1,23.3,29.81,West,270,0.0,0.0,79,0.00,,,0.00,WUHU216HW,2013-03-12 00:08:00,
2013-03-11 19:13:00,29.1,23.3,29.81,North,0,0.0,0.0,79,0.00,,,0.00,WUHU216HW,2013-03-12 00:13:00,
2013-03-11 19:18:00,29.1,23.3,29.81,NW,315,0.0,0.0,79,0.00,,,0.00,WUHU216HW,2013-03-12 00:18:00,
2013-03-11 19:23:00,28.9,23.2,29.81,NNW,338,0.0,0.0,79,0.00,,,0.00,WUHU216HW,2013-03-12 00:23:00,
2013-03-11 19:28:00,28.9,23.2,29.81,WNW,293,0.0,0.0,79,0.00,,,0.00,WUHU216HW,2013-03-12 00:28:00,
2013-03-11 19:33:00,28.9,23.5,29.81,NNW,338,0.0,0.0,80,0.00,,,0.00,WUHU216HW,2013-03-12 00:33:00,
2013-03-11 19:38:00,28.9,23.2,29.82,West,270,0.0,0.0,79,0.00,,,0.00,WUHU216HW,2013-03-12 00:38:00,
2013-03-11 19:43:00,28.9,23.2,29.82,WNW,293,0.0,0.0,79,0.00,,,0.00,WUHU216HW,2013-03-12 00:43:00,
2013-03-11 19:48:00,28.9,23.5,29.82,NW,315,0.0,0.0,80,0.00,,,0.00,WUHU216HW,2013-03-12 00:48:00,
2013-03-11 19:53:00,28.9,23.5,29.83,West,270,0.0,0.0,80,0.00,,,0.00,WUHU216HW,2013-03-12 00:53:00,
2013-03-11 19:58:00,28.9,23.5,29.83,WNW,293,0.0,0.0,80,0.00,,,0.00,WUHU216HW,2013-03-12 00:58:00,
2013-03-11 20:03:00,28.9,23.2,29.83,WNW,293,0.0,0.0,79,0.00,,,0.00,WUHU216HW,2013-03-12 01:03:00,
2013-03-11 20:08:00,28.7,23.0,29.83,WNW,293,0.0,0.0,79,0.00,,,0.00,WUHU216HW,2013-03-12 01:08:00,
2013-03-11 20:13:00,28.7,23.0,29.83,WNW,293,0.0,0.0,79,0.00,,,0.00,WUHU216HW,2013-03-12 01:13:00,
2013-03-11 20:18:00,28.7,23.0,29.83,WNW,293,0.0,0.0,79,0.00,,,0.00,WUHU216HW,2013-03-12 01:18:00,
2013-03-11 20:23:00,28.7,23.3,29.83,WSW,248,0.0,0.0,80,0.00,,,0.00,WUHU216HW,2013-03-12 01:23:00,
2013-03-11 20:28:00,28.7,23.3,29.84,WSW,248,0.0,0.0,80,0.00,,,0.00,WUHU216HW,2013-03-12 01:28:00,
2013-03-11 20:33:00,28.7,23.3,29.83,NW,315,0.0,0.0,80,0.00,,,0.00,WUHU216HW,2013-03-12 01:33:00,
2013-03-11 20:38:00,28.7,23.3,29.84,WNW,293,0.0,0.0,80,0.00,,,0.00,WUHU216HW,2013-03-12 01:38:00,
2013-03-11 20:43:00,28.5,23.1,29.84,WNW,293,0.0,0.0,80,0.00,,,0.00,WUHU216HW,2013-03-12 01:43:00,
2013-03-11 20:48:00,28.5,23.1,29.85,WNW,293,0.0,0.0,80,0.00,,,0.00,WUHU216HW,2013-03-12 01:48:00,
2013-03-11 20:53:00,28.5,23.1,29.86,NNW,338,0.0,0.0,80,0.00,,,0.00,WUHU216HW,2013-03-12 01:53:00,
2013-03-11 20:58:00,28.5,23.1,29.86,WNW,293,0.0,0.0,80,0.00,,,0.00,WUHU216HW,2013-03-12 01:58:00,
2013-03-11 21:04:00,28.5,22.8,29.86,WNW,293,0.0,0.0,79,0.00,,,0.00,WUHU216HW,2013-03-12 02:04:00,
2013-03-11 21:09:00,28.2,22.2,29.87,WSW,248,0.0,0.0,78,0.00,,,0.00,WUHU216HW,2013-03-12 02:09:00,
2013-03-11 21:14:00,28.0,22.0,29.87,NW,315,0.0,0.0,78,0.00,,,0.00,WUHU216HW,2013-03-12 02:14:00,
2013-03-11 21:19:00,28.0,21.7,29.87,WNW,293,0.0,0.0,77,0.00,,,0.00,WUHU216HW,2013-03-12 02:19:00,
2013-03-11 21:24:00,27.6,21.3,29.87,WNW,293,0.0,0.0,77,0.00,,,0.00,WUHU216HW,2013-03-12 02:24:00,
2013-03-11 21:29:00,27.3,21.0,29.87,NNW,338,0.0,0.0,77,0.00,,,0.00,WUHU216HW,2013-03-12 02:29:00,
2013-03-11 21:34:00,27.1,20.8,29.88,WNW,293,0.0,0.0,77,0.00,,,0.00,WUHU216HW,2013-03-12 02:34:00,
2013-03-11 21:39:00,26.7,20.4,29.88,WNW,293,0.0,0.0,77,0.00,,,0.00,WUHU216HW,2013-03-12 02:39:00,
2013-03-11 21:44:00,26.7,20.7,29.88,WNW,293,0.0,0.0,78,0.00,,,0.00,WUHU216HW,2013-03-12 02:44:00,
2013-03-11 21:49:00,26.4,20.1,29.88,NNW,338,0.0,0.0,77,0.00,,,0.00,WUHU216HW,2013-03-12 02:49:00,
2013-03-11 21:54:00,26.2,19.9,29.88,WNW,293,0.0,0.0,77,0.00,,,0.00,WUHU216HW,2013-03-12 02:54:00,
2013-03-11 21:59:00,25.8,19.5,29.88,West,270,0.0,0.0,77,0.00,,,0.00,WUHU216HW,2013-03-12 02:59:00,
2013-03-11 22:04:00,25.7,19.7,29.88,WNW,293,0.0,0.0,78,0.00,,,0.00,WUHU216HW,2013-03-12 03:04:00,
2013-03-11 22:09:00,25.3,19.4,29.88,NE,45,0.0,0.0,78,0.00,,,0.00,WUHU216HW,2013-03-12 03:09:00,
2013-03-11 22:14:00,25.1,19.5,29.87,North,0,0.0,0.0,79,0.00,,,0.00,WUHU216HW,2013-03-12 03:14:00,
2013-03-11 22:19:00,24.9,19.4,29.87,West,270,0.0,0.0,79,0.00,,,0.00,WUHU216HW,2013-03-12 03:19:00,
2013-03-11 22:24:00,24.6,19.5,29.87,WNW,293,0.0,0.0,80,0.00,,,0.00,WUHU216HW,2013-03-12 03:24:00,
2013-03-11 22:29:00,24.6,19.4,29.88,NW,315,0.0,0.0,80,0.00,,,0.00,WUHU216HW,2013-03-12 03:29:00,
2013-03-11 22:34:00,24.6,19.6,29.88,West,270,0.0,0.0,81,0.00,,,0.00,WUHU216HW,2013-03-12 03:34:00,
2013-03-11 22:39:00,24.4,19.4,29.88,West,270,0.0,0.0,81,0.00,,,0.00,WUHU216HW,2013-03-12 03:39:00,
2013-03-11 22:44:00,24.4,19.4,29.88,NW,315,0.0,0.0,81,0.00,,,0.00,WUHU216HW,2013-03-12 03:44:00,
2013-03-11 22:49:00,24.4,19.4,29.88,West,270,0.0,0.0,81,0.00,,,0.00,WUHU216HW,2013-03-12 03:49:00,
2013-03-11 22:54:00,24.6,19.9,29.89,WSW,248,0.0,0.0,82,0.00,,,0.00,WUHU216HW,2013-03-12 03:54:00,
2013-03-11 22:59:00,24.6,19.9,29.88,WSW,248,0.0,0.0,82,0.00,,,0.00,WUHU216HW,2013-03-12 03:59:00,
2013-03-11 23:00:00,24.6,19.9,29.88,WSW,248,0.0,0.0,82,0.00,,,0.00,WUHU216HW,2013-03-12 04:00:00,
2013-03-11 23:05:00,24.6,19.9,29.88,WNW,293,0.0,0.0,82,0.00,,,0.00,WUHU216HW,2013-03-12 04:05:00,
2013-03-11 23:10:00,24.6,19.9,29.89,West,270,0.0,0.0,82,0.00,,,0.00,WUHU216HW,2013-03-12 04:10:00,
2013-03-11 23:15:00,24.4,19.7,29.88,WNW,293,0.0,0.0,82,0.00,,,0.00,WUHU216HW,2013-03-12 04:15:00,
2013-03-11 23:20:00,24.0,19.4,29.89,WNW,293,0.0,0.0,82,0.00,,,0.00,WUHU216HW,2013-03-12 04:20:00,
2013-03-11 23:25:00,23.9,19.4,29.89,WNW,293,0.0,0.0,83,0.00,,,0.00,WUHU216HW,2013-03-12 04:25:00,
2013-03-11 23:30:00,23.9,19.4,29.90,West,270,0.0,0.0,83,0.00,,,0.00,WUHU216HW,2013-03-12 04:30:00,
2013-03-11 23:35:00,24.0,19.6,29.90,West,270,0.0,0.0,83,0.00,,,0.00,WUHU216HW,2013-03-12 04:35:00,
2013-03-11 23:40:00,24.0,19.6,29.90,WNW,293,0.0,0.0,83,0.00,,,0.00,WUHU216HW,2013-03-12 04:40:00,
2013-03-11 23:45:00,24.0,19.6,29.90,WSW,248,0.0,0.0,83,0.00,,,0.00,WUHU216HW,2013-03-12 04:45:00,
2013-03-11 23:50:00,24.0,19.6,29.90,WNW,293,0.0,0.0,83,0.00,,,0.00,WUHU216HW,2013-03-12 04:50:00,
2013-03-11 23:55:00,24.0,19.6,29.90,West,270,0.0,0.0,83,0.00,,,0.00,WUHU216HW,2013-03-12 04:55:00,